Regional Weather Roundup
Issued by NWS Portland, ME

Home | Current Version | Previous Version | Text Only | Print | Product List | Glossary On
Versions: 1 2 3 4 5 6 7 8 9 10 11 12 13 14 15 16 17 18 19 20 21 22 23 24 25 26 27 28 29 30 31 32 33 34 35 36 37 38 39 40 41 42 43 44 45 46 47 48 49 50
027
ASUS41 KGYX 221510
RWRGYX
WEATHER ROUNDUP FOR MAINE AND NEW HAMPSHIRE
NATIONAL WEATHER SERVICE GRAY ME
1100 AM EDT FRI MAY 22 2015

MEZ002-005-006-010-012-015-018-020-021-024-026-027-029-221600-
MAINE

CITY           SKY/WX    TMP DP  RH WIND       PRES   REMARKS
PORTLAND       MOSUNNY   65  48  54 S9        29.78S
BAR HARBOR     CLOUDY    50  48  93 S8        29.83S
WISCASSET      SUNNY     63  45  51 SE6       29.79F
ROCKLAND       MOSUNNY   52  46  82 S12       29.79F
FRYEBURG       PTSUNNY   66  37  34 VRB6      29.76F
LEWISTONAUBURN SUNNY     64  39  39 N6        29.77F
AUGUSTA        SUNNY     62  41  46 NE6       29.77F
WATERVILLE     SUNNY     63  43  48 S5        29.74F
BANGOR         PTSUNNY   58  47  66 S12       29.79F
GREENVILLE       N/A     57  35  43 CALM      29.73R
MILLINOCKET    PTSUNNY   60  43  53 SE7       29.76F
HOULTON        CLOUDY    52  43  71 S7        29.76S
PRESQUE ISLE   CLOUDY    57  41  54 S12       29.73S
FRENCHVILLE    CLOUDY    55  41  59 VRB7      29.71S
CARIBOU        PTSUNNY   58  42  55 S12       29.71F
$$

NHZ002-005-008-009-011-012-014-221600-
NEW HAMPSHIRE

CITY           SKY/WX    TMP DP  RH WIND       PRES   REMARKS
PORTSMOUTH     MOSUNNY   69  36  30 VRB6      29.78S
ROCHESTER      SUNNY     68  39  34 NW12      29.78S
NASHUA         SUNNY     68  35  29 W7G17     29.81F
MANCHESTER     MOSUNNY   69  34  27 NW9       29.79S
CONCORD        SUNNY     69  33  26 MISG      29.79F
LACONIA        MOSUNNY   66  34  30 W7G18     29.77S
PLYMOUTH       PTSUNNY   64  40  41 W7        29.78S
BERLIN         PTSUNNY   60  36  40 MISG      29.78S
WHITEFIELD     CLOUDY    58  37  45 W8        29.79S
JAFFREY        SUNNY     63  37  38 VRB6      29.83F
KEENE          PTSUNNY   64  37  36 NW9       29.82F
LEBANON        PTSUNNY   66  37  34 W18       29.79F
MT WASHINGTON  NOT AVBL
$$

VTZ005-007-008-221600-
VERMONT

CITY           SKY/WX    TMP DP  RH WIND       PRES   REMARKS
ST JOHNSBURY     N/A     60  38  43 MISG      29.80R
MONTPELIER     PTSUNNY   55  40  56 NW13G20   29.88R
BURLINGTON     PTSUNNY   59  38  45 N15G23    29.88R
$$

MAZ007-012-024-CTZ003-RIZ002-NYZ038-NYZ072-221600-
SOUTHERN NEW ENGLAND AND NY

CITY           SKY/WX    TMP DP  RH WIND       PRES   REMARKS
BOSTON         MOSUNNY   67  37  33 NW7       29.81S
WORCESTER      SUNNY     64  35  34 NW12G18   29.84S
NANTUCKET      MOSUNNY   57  49  74 NW6       29.85R
PROVIDENCE     MOSUNNY   69  38  32 W12       29.84R
HARTFORD       MOSUNNY   69  40  34 NW12      29.85S
ALBANY         MOSUNNY   65  40  39 W16G24    29.89R
NEW YORK CITY  SUNNY     68  39  34 NW6       29.92S
$$

ANZ081-ANZ082-ANZ150-NHZ014-MEZ023>029-221600-
COASTAL MARINE OBSERVATIONS

STATION/POSITION TIME  TEMP    WIND        PRES    WAVE
                       AIR SEA DIR/SP/G            HT/PER
                 (UTC) (F)     (DEG/KT/KT) (MB)    (FT/S)
MOUNT DESERT ROC 1500   46     140/ 15/ 16   N/A
MATINICUS ROCK   1500   48     170/ 14/ 15   N/A
ISLE OF SHOALS   1500   56     180/  8/  9 1084.0F
JEFFREYS LEDGE   1403      47                N/A     3/ 5
CASHES LEDGE BUO 1450   49 49                N/A     3/ 5
GEORGES BANK BUO 1450   51 48   40/ 21/ 25 1043.0F   4/ 5
$$

.............KEY..............
   WCI - WIND CHILL
   TC  - TEMPERATURE IN CELSIUS
   VSB - VISIBILITY IN MILES
   HX  - HEAT INDEX
   FAIR- INDICATES FEW OR NO CLOUDS BELOW 12,000 FT, WITH NO
         SIGNIFICANT WEATHER AND/OR OBSTRUCTIONS TO VISIBILITY.





USA.gov is the U.S. government's official web portal to all federal, state and local government web resources and services.